Flag for Colombia Weather past 2 weeks in Medellin, Colombia

Now
73 °F

Scattered clouds.


Feels Like: 77 °F
Forecast: 62 / 88 °F
Wind: 17 mph from East

Location: Rionegro / J. M. Cordova

Current Time: Jul 23, 2014 at 3:25:40 PM

Latest Report: Jul 23, 2014 at 3:00 PM


Visibility: N/A

Pressure: 30.22 "Hg

Humidity: 47%

Dew point: 52 °F

Location of MedellinLocation

Historic Weather in Medellin — Graph

°F

Medellin temperature yesterday

Maximum temperature yesterday: 72 °F (at 12:00 PM)
Minimum temperature yesterday: 57 °F (at 3:00 AM)
Average temperature yesterday: 62 °F

Past Weeks' High & Low Weather Summary

 TemperatureHumidityPressure
High84 °F (Jul 8, 5:00 PM)100% (Jul 10, 3:00 AM)30.38 "Hg (Jul 10, 3:00 AM)
Low48 °F (Jul 17, 5:00 AM)31% (Jul 8, 5:00 PM)30.01 "Hg (Jul 8, 5:00 PM)
Average63 °F72%30.30 "Hg
* Reported Jul 8 2:00 PM — Jul 23 2:00 PM, Medellin, Weather by CustomWeather, © 2014

Note: Actual official high and low records may vary slightly from our data, if they occured in-between our weather recording intervals... More about our weather records

Advertising

Medellin weather history for previous 24 hours

 ConditionsComfort  
Time TempWeatherWind HumidityBarometerVisibility
2:00 PM
Jul 23
73 °FScattered clouds.15 mph47%30.24 "HgN/A
1:00 PM72 °FScattered clouds.15 mph47%30.25 "HgN/A
12:00 PM72 °FScattered clouds.No wind47%30.27 "HgN/A
11:00 AM70 °FScattered clouds.18 mph50%30.28 "HgN/A
10:00 AM70 °FScattered clouds.No wind50%30.30 "HgN/A
9:00 AM66 °FPassing clouds.No wind64%30.29 "HgN/A
8:00 AM63 °FScattered clouds.No wind77%30.29 "HgN/A
7:00 AM59 °FClear.No wind82%30.28 "HgN/A
6:00 AM57 °FScattered clouds.No wind94%30.27 "HgN/A
5:00 AM55 °FPassing clouds.5 mph94%30.26 "HgN/A
4:00 AM55 °FPassing clouds.No wind94%30.25 "HgN/A
3:00 AM57 °FPassing clouds.No wind94%30.28 "HgN/A
12:00 AM57 °FPassing clouds.No wind94%30.32 "HgN/A
11:00 PM
Jul 22
59 °FPassing clouds.N/A88%30.32 "HgN/A
10:00 PM61 °FPassing clouds.No wind83%30.32 "HgN/A
9:00 PM61 °FPartly cloudy.No wind83%30.31 "HgN/A
8:00 PM63 °FPartly cloudy.5 mph77%30.28 "HgN/A
7:00 PM64 °FPartly cloudy.No wind73%30.25 "HgN/A
Weather by CustomWeather, © 2014

See weather overviewHow to use our weather pages